[[{"header":{"parameterUnit":"m.s-1","parameterCategory":1,"la1":30.2991,"la2":30.254,"lo1":-89.0895,"lo2":-89.0444,"dy":0.0017,"dx":0.0017,"nx":28,"ny":28,"refTime":"2024-07-30T03:00:00:Z","depth":0,"parameterNumber":2,"parameterNumberName":"U-component_of_WINDS"},"data":[0,0,0,0,0,0,0,0,0,0,0,0,0,0,0,0,0,0,0,0,0,0,0,0,0,0,0,0,0,0,0,0,0,0,0,0,0,0,0,0,0,0,0,0,0,0,0,0,0,0,0,0,0,0,0,0,0,0,4.4387,4.4388,0,4.453,4.4532,4.4533,4.4443,4.4439,4.4435,4.4431,4.4582,4.459,4.4598,0,0,0,0,0,0,0,0,0,0,0,0,0,4.4036,4.4043,4.4386,4.4388,4.439,4.453,4.4532,4.4534,4.4444,4.4439,4.4434,4.4429,4.458,4.4589,4.4599,0,0,0,0,0,0,0,0,0,0,0,0,0,4.4185,4.4046,4.4386,4.4362,4.4361,4.453,4.4532,4.4534,4.4445,4.4439,4.4432,4.4426,4.4576,4.4588,4.46,4.4802,0,0,4.4637,4.4642,0,0,0,0,0,0,0,0,4.4177,4.4198,4.4364,4.4364,4.4363,4.4462,4.4464,4.4624,4.4447,4.4413,4.4431,4.4423,4.4548,4.4562,4.4603,4.4809,4.4815,4.4638,4.4645,4.465,4.4653,0,0,0,0,0,0,0,4.4167,4.4192,4.4443,4.4366,4.4366,4.4345,4.4359,4.4494,4.4515,4.4416,4.4409,4.4427,4.4546,4.4591,4.4606,4.4817,4.4637,4.4648,4.4655,4.466,4.5193,4.52,0,0,0,0,0,0,4.4158,4.4184,4.4439,4.4448,4.4252,4.4356,4.4372,4.4437,4.4513,4.4518,4.4433,4.4423,4.4574,4.4592,4.4611,4.4849,4.465,4.4661,4.4668,4.5186,4.5195,4.5202,0,0,0,0,0,0,4.4151,4.4182,4.4433,4.4314,4.4344,4.4369,4.4443,4.4443,4.4488,4.4526,4.4529,4.4475,4.457,4.4594,4.4754,4.4853,4.4667,4.4678,4.5178,4.5189,4.5198,4.533,0,0,0,0,0,0,4.4141,4.4179,4.4256,4.4316,4.4351,4.4574,4.4449,4.4451,4.4508,4.4497,4.4566,4.4572,4.4567,4.4736,4.4766,4.4867,4.4687,4.5169,4.5183,4.5195,4.5317,4.5344,4.5367,0,0,0,0,0,4.4129,4.4289,4.426,4.4292,4.4447,4.458,4.4599,4.4589,4.4517,4.4594,4.4618,4.4569,4.4838,4.4754,4.4786,4.4892,4.5163,4.5179,4.5194,4.5306,4.5339,4.5366,0,0,0,0,0,0,4.4242,4.4297,4.4265,4.445,4.451,4.4564,4.4661,4.4625,4.4708,4.4694,4.4679,4.4696,4.4862,4.4893,4.4798,4.509,4.4989,4.5012,4.5063,4.5095,4.5119,4.5108,4.4697,0,0,0,0,0,4.4288,4.439,4.4433,4.4591,4.4623,4.4637,4.4695,4.4681,4.4744,4.477,4.4805,4.4869,4.4967,4.5033,4.5126,4.5321,4.5334,4.541,4.5435,4.5455,4.5475,4.5578,4.5612,4.5253,4.5253,4.5253,0,0,4.4385,4.4427,4.4493,4.4615,4.466,4.4766,4.4659,4.4777,4.4856,4.4788,4.494,4.4969,4.5039,4.5217,4.5297,4.5248,4.5576,4.5475,4.5491,4.55,4.5598,4.5631,4.5662,4.5264,4.5262,4.526,0,0,4.4615,4.4658,4.4794,4.4841,4.491,4.4918,4.495,4.5009,4.5025,4.5177,4.5127,4.5221,4.5392,4.5443,4.5491,4.5738,4.5696,4.5769,4.5899,4.6,4.6028,4.6053,4.6139,4.6171,4.5789,4.5789,4.579,0,4.4727,4.4884,4.4868,4.4989,4.5043,4.4985,4.5121,4.5168,4.5265,4.5304,4.5248,4.5458,4.5502,4.5689,4.5749,4.5791,4.5827,4.5761,4.6025,4.605,4.6073,4.6155,4.6188,4.5798,4.5797,4.5796,4.5795,0,4.5018,4.5127,4.5229,4.5321,4.5387,4.5515,4.5519,4.5588,4.5568,4.5582,4.5737,4.5786,4.5887,4.5931,4.5914,4.6116,4.6083,4.6026,4.5925,4.6116,4.6192,4.6224,4.5809,4.5807,4.5804,4.5802,0,0,4.5324,4.5404,4.5441,4.5481,4.5552,4.5637,4.5762,4.5859,4.5917,4.5986,4.609,4.6234,4.6181,4.6236,4.6224,4.6313,4.6503,4.6245,4.6246,4.629,4.6726,4.6767,4.6804,4.6475,4.6481,4.6486,4.6719,0,4.5557,4.5774,4.5762,4.5965,4.6065,4.601,4.6119,4.6174,4.619,4.6278,4.6296,4.6398,4.6321,4.6353,4.6439,4.6462,4.659,4.6445,4.6572,4.6576,4.6554,4.6844,4.6889,4.7106,4.6749,4.6755,4.6758,0,4.5858,4.5934,4.6147,4.62,4.6241,4.6339,4.6425,4.651,4.6572,4.6577,4.6637,4.661,4.6736,4.6632,4.6805,4.6707,4.6758,4.6777,4.6785,4.6795,4.6678,4.6861,4.7175,4.7207,4.6806,4.6802,4.6799,0,4.6058,4.6214,4.636,4.6396,4.6463,4.6533,4.6564,4.6619,4.6677,4.6752,4.6789,4.688,4.6929,4.7,4.6998,4.6922,4.7173,4.7069,4.718,4.718,4.7235,4.7231,4.756,4.7271,4.727,4.727,4.7269,0,4.6318,4.645,4.645,4.654,4.6686,4.6671,4.6816,4.684,4.6889,4.6983,4.6942,4.7031,4.7023,4.7113,4.7113,4.7255,4.7278,4.7286,4.7284,4.7289,4.7287,4.7321,4.7305,4.7278,4.7276,4.7275,4.7273,0,4.6566,4.6572,4.6727,4.6776,4.6792,4.6897,4.6939,4.7025,4.7036,4.7155,4.7182,4.7201,4.7304,4.7309,4.743,4.7429,4.7601,4.7584,4.758,4.7576,4.7686,4.7675,4.8048,4.8095,4.7776,4.7779,4.7782,0,4.6731,4.6831,4.689,4.6949,4.6983,4.7079,4.7137,4.7126,4.7189,4.7264,4.7341,4.7439,4.7518,4.7686,4.7711,4.7802,4.7785,4.7909,4.7798,4.7799,4.7784,4.7778,4.7786,4.793,4.7934,4.7937,4.7939,0,4.7023,4.702,4.7105,4.719,4.7259,4.7326,4.7389,4.7439,4.7436,4.7508,4.7611,4.7672,4.7793,4.7892,4.798,4.8012,4.7975,4.7973,4.8004,4.8009,4.8002,4.8005,4.7637,4.7965,4.7962,4.796,4.7959,4.7958,4.7234,4.7319,4.7372,4.7467,4.7512,4.757,4.7652,4.7672,4.7758,4.7854,4.7843,4.7959,4.8015,4.8129,4.8169,4.8259,4.8216,4.8261,4.8272,4.8282,4.8293,4.7988,4.8275,4.8275,4.8274,4.8273,4.8273,0,4.7522,4.7553,4.764,4.7727,4.7801,4.7758,4.7824,4.7889,4.799,4.8046,4.8123,4.8241,4.8336,4.8367,4.8459,4.8525,4.851,4.8549,4.8544,4.8551,4.8327,4.8291,4.8559,4.8559,4.8559,4.8559,4.8559,4.8559,4.768,4.7821,4.7824,4.7986,4.8016,4.8127,4.8168,4.8221,4.8265,4.8398,4.8476,4.8495,4.8541,4.8635,4.8719,4.8726,4.8761,4.8807,4.8807,4.8596,4.8567,4.854,4.8505,4.8815,4.8816,4.9023,4.9025,4.9026]},{"header":{"parameterUnit":"m.s-1","parameterCategory":1,"la1":30.2991,"la2":30.254,"lo1":-89.0895,"lo2":-89.0444,"dy":0.0017,"dx":0.0017,"nx":28,"ny":28,"refTime":"2024-07-30T03:00:00:Z","depth":0,"parameterNumber":3,"parameterNumberName":"V-component_of_WINDS"},"data":[0,0,0,0,0,0,0,0,0,0,0,0,0,0,0,0,0,0,0,0,0,0,0,0,0,0,0,0,0,0,0,0,0,0,0,0,0,0,0,0,0,0,0,0,0,0,0,0,0,0,0,0,0,0,0,0,0,0,0.4125,0.4125,0,0.4144,0.4144,0.4145,0.4135,0.4135,0.4134,0.4134,0.4155,0.4156,0.4157,0,0,0,0,0,0,0,0,0,0,0,0,0,0.4079,0.408,0.4125,0.4125,0.4125,0.4144,0.4144,0.4145,0.4135,0.4135,0.4134,0.4133,0.4154,0.4156,0.4157,0,0,0,0,0,0,0,0,0,0,0,0,0,0.4099,0.408,0.4125,0.4123,0.4123,0.4144,0.4144,0.4145,0.4135,0.4135,0.4134,0.4133,0.4154,0.4156,0.4157,0.4182,0,0,0.4162,0.4163,0,0,0,0,0,0,0,0,0.4098,0.4101,0.4123,0.4123,0.4123,0.4136,0.4136,0.4157,0.4136,0.4131,0.4134,0.4133,0.4149,0.4151,0.4157,0.4183,0.4184,0.4162,0.4163,0.4164,0.4164,0,0,0,0,0,0,0,0.4096,0.41,0.4132,0.4123,0.4123,0.4121,0.4123,0.414,0.4144,0.4131,0.413,0.4133,0.4149,0.4155,0.4157,0.4184,0.4162,0.4163,0.4164,0.4165,0.423,0.4231,0,0,0,0,0,0,0.4095,0.4099,0.4132,0.4133,0.4108,0.4122,0.4124,0.4133,0.4144,0.4145,0.4133,0.4132,0.4153,0.4155,0.4158,0.4187,0.4164,0.4165,0.4166,0.4229,0.423,0.4231,0,0,0,0,0,0,0.4094,0.4098,0.4131,0.4116,0.412,0.4124,0.4133,0.4134,0.414,0.4146,0.4146,0.4139,0.4152,0.4156,0.4176,0.4187,0.4166,0.4167,0.4228,0.423,0.4231,0.4245,0,0,0,0,0,0,0.4093,0.4098,0.4107,0.4116,0.412,0.4149,0.4134,0.4135,0.4142,0.4141,0.4151,0.4152,0.4152,0.4173,0.4177,0.4189,0.4168,0.4227,0.4229,0.423,0.4244,0.4247,0.4249,0,0,0,0,0,0.4091,0.4111,0.4108,0.4112,0.4133,0.4149,0.4152,0.4152,0.4143,0.4153,0.4156,0.4151,0.4185,0.4175,0.418,0.4192,0.4227,0.4229,0.423,0.4243,0.4246,0.4249,0,0,0,0,0,0,0.4105,0.4112,0.4109,0.4132,0.414,0.4148,0.416,0.4156,0.4167,0.4165,0.4164,0.4167,0.4187,0.4192,0.4181,0.4216,0.4205,0.4207,0.4213,0.4216,0.4219,0.4217,0.417,0,0,0,0,0,0.4111,0.4123,0.4129,0.4149,0.4153,0.4156,0.4163,0.4162,0.417,0.4174,0.4179,0.4187,0.42,0.4208,0.422,0.4244,0.4246,0.4255,0.4258,0.426,0.4262,0.4274,0.4278,0.4237,0.4237,0.4237,0,0,0.4123,0.4128,0.4137,0.4152,0.4158,0.4171,0.4159,0.4174,0.4183,0.4176,0.4195,0.4199,0.4208,0.423,0.424,0.4235,0.4274,0.4262,0.4264,0.4265,0.4277,0.428,0.4284,0.4238,0.4238,0.4238,0,0,0.4151,0.4157,0.4174,0.418,0.4188,0.419,0.4194,0.4201,0.4204,0.4222,0.4217,0.4228,0.425,0.4256,0.4263,0.4292,0.4287,0.4296,0.4311,0.4322,0.4325,0.4328,0.4338,0.4342,0.4298,0.4298,0.4298,0,0.4166,0.4185,0.4183,0.4198,0.4205,0.4198,0.4214,0.422,0.4233,0.4237,0.4231,0.4257,0.4263,0.4285,0.4292,0.4298,0.4302,0.4295,0.4325,0.4328,0.433,0.434,0.4343,0.4299,0.4299,0.4299,0.4299,0,0.4201,0.4215,0.4227,0.4238,0.4246,0.4262,0.4262,0.4271,0.4268,0.427,0.4289,0.4295,0.4308,0.4313,0.4312,0.4335,0.4331,0.4325,0.4313,0.4335,0.4344,0.4348,0.43,0.43,0.43,0.4299,0,0,0.4241,0.4249,0.4254,0.4258,0.4266,0.4277,0.4292,0.4303,0.431,0.4318,0.4331,0.4348,0.4342,0.4349,0.4348,0.4358,0.4379,0.435,0.435,0.4355,0.4405,0.441,0.4414,0.4376,0.4377,0.4377,0.4404,0,0.4269,0.4295,0.4293,0.4317,0.4329,0.4322,0.4335,0.4341,0.4343,0.4353,0.4355,0.4367,0.4358,0.4362,0.4372,0.4375,0.4389,0.4373,0.4387,0.4388,0.4385,0.4418,0.4424,0.4448,0.4407,0.4408,0.4408,0,0.4307,0.4315,0.434,0.4346,0.435,0.4362,0.4372,0.4382,0.4388,0.4389,0.4396,0.4392,0.4407,0.4395,0.4414,0.4403,0.4409,0.4411,0.4412,0.4413,0.44,0.442,0.4456,0.446,0.4414,0.4413,0.4413,0,0.4332,0.435,0.4367,0.4371,0.4378,0.4386,0.4389,0.4395,0.4401,0.441,0.4414,0.4424,0.443,0.4437,0.4437,0.4428,0.4456,0.4444,0.4457,0.4457,0.4464,0.4463,0.4501,0.4468,0.4468,0.4467,0.4467,0,0.4364,0.438,0.4378,0.4389,0.4405,0.4403,0.4419,0.4422,0.4427,0.4437,0.4432,0.4442,0.444,0.445,0.445,0.4466,0.4469,0.4469,0.4469,0.447,0.4469,0.4473,0.4472,0.4468,0.4468,0.4468,0.4468,0,0.4396,0.4395,0.4413,0.4417,0.4419,0.4431,0.4434,0.4444,0.4445,0.4458,0.4461,0.4462,0.4473,0.4473,0.4487,0.4486,0.4505,0.4503,0.4503,0.4503,0.4515,0.4514,0.4556,0.4561,0.4525,0.4525,0.4526,0,0.4416,0.4428,0.4433,0.4439,0.4443,0.4453,0.4459,0.4457,0.4463,0.4471,0.448,0.449,0.4499,0.4517,0.4519,0.4529,0.4526,0.4541,0.4528,0.4528,0.4526,0.4525,0.4526,0.4543,0.4544,0.4544,0.4544,0,0.4453,0.4451,0.446,0.4469,0.4476,0.4483,0.4489,0.4495,0.4493,0.45,0.4511,0.4518,0.453,0.4541,0.455,0.4553,0.4548,0.4548,0.4551,0.4552,0.4551,0.4551,0.451,0.4547,0.4547,0.4547,0.4547,0.4546,0.4479,0.4488,0.4493,0.4503,0.4507,0.4512,0.4521,0.4522,0.4531,0.4541,0.4539,0.4551,0.4556,0.4568,0.4572,0.4581,0.4576,0.4581,0.4582,0.4583,0.4584,0.455,0.4583,0.4583,0.4582,0.4582,0.4582,0,0.4515,0.4517,0.4526,0.4534,0.4541,0.4535,0.4541,0.4548,0.4559,0.4564,0.4572,0.4584,0.4593,0.4595,0.4605,0.4612,0.4609,0.4614,0.4613,0.4614,0.4589,0.4585,0.4615,0.4615,0.4615,0.4615,0.4615,0.4615,0.4534,0.4549,0.4548,0.4565,0.4567,0.4579,0.4582,0.4587,0.4591,0.4605,0.4612,0.4613,0.4617,0.4626,0.4634,0.4635,0.4638,0.4644,0.4643,0.4619,0.4616,0.4613,0.4609,0.4644,0.4644,0.4667,0.4668,0.4668]}]]